Simultaneous Nadir Overpasses (SNOs) Predictions

Prediction of SNOs between GOES-17 and METOP-C Satellite Orbit:

Table of predicted SNOs for the next 14.0 days since TLE Epoch: 11/25/2023
Index Date Time (GOES-17) GOES-17 Lat,Lon METOP-C Lat,Lon Distance(km) Time Diff (sec)
1 11/25/2023 16:43:29 -0.02,-104.68 0.86,-108.71 458.81 80
2 11/26/2023 16:25:30 -0.02,-104.68 -0.22,-103.71 110.42 80
3 11/28/2023 04:44:30 0.01,-104.66 -0.79,-108.30 414.82 80
4 11/29/2023 04:21:11 -0.01,-104.66 0.30,-103.30 154.36 80
5 11/30/2023 16:40:04 0.02,-104.68 0.71,-107.87 363.59 80
6 12/01/2023 16:22:04 0.03,-104.68 -0.38,-102.87 205.97 80
7 12/03/2023 04:41:04 -0.03,-104.67 -0.67,-107.46 318.48 80
8 12/04/2023 04:17:44 -0.04,-104.67 0.43,-102.46 250.94 80
9 12/05/2023 16:36:37 0.04,-104.69 0.57,-107.03 266.97 80
10 12/06/2023 16:18:38 0.05,-104.69 -0.53,-102.03 302.89 80
11 12/08/2023 04:37:37 -0.04,-104.68 -0.50,-106.62 220.89 80
